Flag for Canada Weather past 2 weeks in MD of Lunenburg, Nova Scotia, Canada

Now
49 °F

Cool.


Feels Like: 48 °F
Forecast: 46 / 58 °F
Wind: 5 mph from Northwest

Location: McNabs Island - AUT

Current Time: Oct 26, 2014 at 12:16:52 AM

Latest Report: Oct 25, 2014 at 11:00 PM


Visibility: N/A

Pressure: 29.52 "Hg

Humidity: 92%

Dew point: 47 °F

Location of MD of LunenburgLocation

Historic Weather in MD of Lunenburg — Graph

°F

MD of Lunenburg temperature yesterday

Maximum temperature yesterday: 55 °F (at 12:00 AM)
Minimum temperature yesterday: 49 °F (at 7:00 AM)
Average temperature yesterday: 52 °F

Past Weeks' High & Low Weather Summary

 TemperatureHumidityPressure
High74 °F (Oct 15, 5:00 PM)100% (Oct 12, 6:00 AM)30.33 "Hg (Oct 12, 6:00 AM)
Low42 °F (Oct 20, 7:00 AM)37% (Oct 21, 2:00 PM)29.39 "Hg (Oct 25, 2:00 AM)
Average55 °F87%29.93 "Hg
* Reported Oct 10 11:00 PM — Oct 25 11:00 PM, MD of Lunenburg, Weather by CustomWeather, © 2014

Note: Actual official high and low records may vary slightly from our data, if they occured in-between our weather recording intervals... More about our weather records

Advertising

MD of Lunenburg weather history for previous 24 hours

 ConditionsComfort  
Time TempWeatherWind HumidityBarometerVisibility
11:00 PM
Oct 25
49 °FCool.5 mph92%29.52 "HgN/A
10:00 PM49 °FCool.3 mph92%29.51 "HgN/A
9:00 PM50 °FCool.3 mph84%29.52 "HgN/A
8:00 PM51 °FCool.5 mph88%29.52 "HgN/A
7:00 PM51 °FCool.2 mph88%29.51 "HgN/A
6:00 PM51 °FCool.5 mph87%29.49 "HgN/A
5:00 PM52 °FCool.6 mph87%29.48 "HgN/A
4:00 PM52 °FCool.6 mph85%29.47 "HgN/A
3:00 PM53 °FCool.8 mph84%29.46 "HgN/A
2:00 PM52 °FCool.10 mph88%29.45 "HgN/A
1:00 PM52 °FCool.9 mph86%29.47 "HgN/A
12:00 PM53 °FCool.7 mph87%29.47 "HgN/A
11:00 AM52 °FCool.7 mph90%29.47 "HgN/A
10:00 AM52 °FCool.7 mph90%29.47 "HgN/A
9:00 AM51 °FCool.8 mph91%29.46 "HgN/A
8:00 AM51 °FCool.6 mph92%29.44 "HgN/A
7:00 AM49 °FCool.8 mph99%29.43 "HgN/A
6:00 AM51 °FCool.9 mph94%29.42 "HgN/A
5:00 AM52 °FCool.9 mph94%29.41 "HgN/A
4:00 AM53 °FCool.9 mph88%29.40 "HgN/A
3:00 AM53 °FCool.8 mph95%29.40 "HgN/A
2:00 AM54 °FCool.7 mph96%29.39 "HgN/A
1:00 AM54 °FCool.7 mph98%29.40 "HgN/A
12:00 AM55 °FCool.8 mph98%29.39 "HgN/A
Weather by CustomWeather, © 2014

See weather overviewHow to use our weather pages